Погода в Романове

Россия / Алтайский край     52°37′03″N   81°13′16″E
темп.,
°C
ветер,
м/с
пор.,
м/с
влажн.,
%
обл.,
%
осадки,
мм/ч
давл.,
гПа
погр.,
м
7 мая, пт
пт701:00+20юз4538100 0.0 100475
04:00+18зсз485198 0.0 1006220
07:00+15сз51058100 0.0 1009358
10:00+15сз5855100 0.0 1011516
13:00+16сз5747100 0.0 10141046
16:00+19сз6728100 0.0 10151956
19:00+18сз6730100 0.0 10161816
22:00+14сз3742100 0.0 1019124
8 мая, сб
сб801:00+11с3449100 0.0 102059
04:00+9ссз225013 0.0 102122
07:00+9с23548 0.0 102264
10:00+14ссв22360 0.0 1022616
13:00+18ссз23241 0.0 10211218
16:00+20ссз34233 0.0 10191521
19:00+20ссз34260 0.0 10191592
22:00+16ссв22400 0.0 101914
9 мая, вс
вс901:00+14ююв11441 0.0 101911
04:00+12ююз114812 0.0 101810
07:00+12сз015014 0.0 101810
10:00+18ссв233571 0.0 1017489
13:00+21ссв332839 0.0 10171818
16:00+23св432567 0.0 10152277
19:00+22св543186 0.0 10142279
22:00+15всв7124437 0.0 1015443
10 мая, пн
пн1001:00+12всв7134610 0.0 1015485
04:00+10всв71449100 0.0 1014443
07:00+9всв71351100 0.0 1014518
10:00+10всв81344100 0.0 1012613
13:00+13всв6834100 0.0 10121029
16:00+12св8945100 0.3 1011851
19:00+14всв6844100 0.4 10101334
22:00+12св384797 0.0 1011284
11 мая, вт
вт1101:00+9с495684 0.0 1011196
04:00+7ссв4106418 0.0 1011259
07:00+7ссв4970100 0.0 1013293
10:00+11ссв565286 0.0 1013700
13:00+15с5539100 0.0 10131525
16:00+16с5533100 0.0 10132036
19:00+16с5634100 0.0 10132180
22:00+13с6104399 0.0 1014604